Home > Time Zones > World Clock > Weather > Belgium > Spa > Past weeks

Flag for Belgium Weather past 2 weeks in Spa, Belgium

Now
54 °F

Clear.


Feels Like: 54 °F
Forecast: 44 / 78 °F
Wind: 2 mph from East

Location: Spa / La Sauveniere

Current Time: Aug 1, 2015 at 2:33:55 AM

Latest Report: Aug 1, 2015 at 1:00 AM


Visibility: 28 mi

Pressure: 30.02 "Hg

Humidity: 61%

Dew point: 41 °F

Location of SpaLocation

Historic Weather in Spa — Graph

°F

Spa temperature yesterday

Maximum temperature yesterday: 63 °F (at 6:00 PM)
Minimum temperature yesterday: 46 °F (at 7:00 AM)
Average temperature yesterday: 54 °F

Past Weeks' High & Low Weather Summary

 TemperatureHumidityPressure
High85 °F (Jul 17, 5:00 PM)97% (Jul 19, 5:00 AM)30.17 "Hg (Jul 19, 5:00 AM)
Low46 °F (Jul 31, 7:00 AM)26% (Jul 17, 5:00 PM)29.56 "Hg (Jul 25, 7:00 AM)
Average60 °F76%29.92 "Hg
* Reported Jul 17 1:00 AM — Aug 1 1:00 AM, Spa, Weather by CustomWeather, © 2015

Note: Actual official high and low records may vary slightly from our data, if they occured in-between our weather recording intervals... More about our weather records

Advertising

Spa weather history for previous 24 hours

 ConditionsComfort  
Time TempWeatherWind HumidityBarometerVisibility
1:00 AM
Sat, Aug 1
54 °FClear.2 mph61%30.02 "Hg28 mi
12:00 AM54 °FClear.2 mph65%30.03 "Hg28 mi
11:00 PM
Fri, Jul 31
54 °FClear.3 mph66%30.04 "Hg25 mi
10:00 PM55 °FClear.3 mph64%30.03 "Hg22 mi
9:00 PM57 °FSunny.2 mph65%30.03 "Hg25 mi
8:00 PM60 °FSunny.5 mph56%30.02 "Hg25 mi
7:00 PM62 °FSunny.5 mph51%30.02 "Hg22 mi
6:00 PM63 °FPassing clouds.3 mph47%30.04 "Hg25 mi
5:00 PM63 °FPartly sunny.N/A52%30.05 "Hg18 mi
4:00 PM61 °FScattered clouds.2 mph55%30.07 "Hg25 mi
3:00 PM61 °FPartly sunny.N/A55%30.08 "Hg22 mi
2:00 PM58 °FPassing clouds.3 mph64%30.11 "Hg19 mi
1:00 PM58 °FScattered clouds.2 mph66%30.13 "Hg25 mi
12:00 PM55 °FScattered clouds.3 mph72%30.15 "Hg22 mi
11:00 AM54 °FPassing clouds.2 mph74%30.16 "Hg19 mi
10:00 AM53 °FScattered clouds.2 mph76%30.16 "Hg19 mi
9:00 AM51 °FPassing clouds.2 mph80%30.16 "Hg17 mi
8:00 AM48 °FSunny.2 mph90%30.17 "HgN/A
7:00 AM46 °FFog.2 mph93%30.17 "Hg3 mi
6:00 AM47 °FFog.1 mph94%30.16 "Hg2 mi
4:00 AM49 °FDense fog.2 mph97%30.15 "Hg0 mi
3:00 AM49 °FDense fog.1 mph97%30.16 "Hg1 mi
2:00 AM49 °FDense fog.1 mph97%30.16 "Hg1 mi
Weather by CustomWeather, © 2015

See weather overviewHow to use our weather pages